Theta_e
317 317 317 318 317 317 318 318 318 318 318 319 318 319 320 320 319 311 300 308 311 329 323 305 305 302 302 300 304 301 293 289 292 292 295 304 300 303 306 306 316 335 332 336 337
316 316 316 317 317 317 317 318 318 319 319 319 319 320 320 320 309 305 316 326 330 331 305 303 299 299 295 297 301 300 292 293 298 298 296 302 298 303 304 303 324 329 328 337 334
316 316 316 316 316 317 316 317 318 319 319 320 320 320 320 318 299 300 330 331 332 332 306 305 301 298 294 292 295 297 295 297 300 302 300 300 302 305 302 299 317 321 327 331 332
315 315 315 315 315 315 316 316 317 318 319 319 319 319 319 309 289 307 337 334 337 313 305 302 297 292 294 291 293 293 297 299 300 303 299 301 303 303 302 305 309 320 334 331 332
315 315 314 315 315 315 316 316 316 317 317 318 319 319 311 299 301 308 338 337 315 306 302 298 294 293 291 292 294 293 296 299 301 300 299 301 301 301 302 306 307 329 334 331 330
315 315 315 315 315 315 315 315 315 315 316 319 320 318 303 293 303 317 319 312 306 303 301 298 297 297 295 294 294 297 296 298 298 299 298 298 299 300 303 305 306 331 325 322 325
314 314 314 314 315 315 315 315 314 315 316 321 321 315 305 298 310 319 312 305 305 306 302 301 300 299 298 295 296 295 293 295 295 296 297 298 296 297 303 304 303 313 323 325 326
314 313 313 314 314 315 315 314 314 315 317 320 321 311 298 307 310 312 309 308 310 306 305 305 304 299 297 298 298 293 290 288 293 297 300 298 291 299 303 300 302 302 304 307 314
314 313 313 313 314 314 313 312 314 316 320 321 309 305 299 315 313 313 310 308 310 309 307 311 304 299 299 293 290 289 285 287 292 297 297 295 293 299 301 301 300 301 302 303 303
314 313 312 313 313 313 312 312 320 319 318 318 315 300 301 303 312 312 310 310 307 304 302 300 296 293 290 290 285 285 285 287 288 293 295 294 293 297 300 299 299 299 300 301 303
314 313 312 312 312 311 307 302 298 297 306 300 301 302 304 311 317 309 308 307 305 301 294 296 292 289 291 292 293 291 289 288 293 296 293 292 292 296 299 298 298 299 300 299 300
313 312 312 311 311 311 303 299 301 299 295 304 305 305 307 309 304 306 308 301 299 294 295 293 289 294 295 294 292 291 288 289 292 296 293 292 292 296 297 297 298 299 300 300 298
312 311 311 311 310 305 301 303 305 299 293 298 301 301 302 306 302 302 306 301 297 293 293 291 294 298 295 293 292 290 288 290 290 295 293 291 289 292 296 296 298 299 299 300 301
311 311 310 310 303 298 301 306 305 300 287 293 298 301 302 304 300 308 309 302 296 294 293 292 296 297 294 293 293 288 294 294 293 289 285 291 286 288 292 294 296 298 302 303 305
310 310 310 309 299 299 304 305 303 302 279 297 300 304 300 297 300 301 305 302 296 296 295 293 294 294 293 295 297 292 298 295 294 289 285 287 283 287 290 291 295 299 302 303 305
309 309 309 303 300 303 305 302 301 289 281 295 299 297 296 299 300 303 303 303 302 296 296 295 299 297 296 298 297 298 295 292 288 286 282 286 286 285 288 295 298 300 302 303 304
309 309 306 306 300 302 301 299 288 283 295 291 294 297 295 294 297 298 296 292 289 288 287 292 293 297 297 292 293 295 289 283 282 281 282 288 284 286 300 301 301 301 302 303 304
306 306 304 307 304 304 298 293 281 291 290 295 295 296 292 294 295 296 294 289 292 291 288 287 287 293 295 291 288 291 292 284 278 279 282 290 283 292 304 305 304 303 303 304 304
304 299 302 304 305 299 294 283 283 288 292 290 293 290 290 292 294 294 292 290 290 290 286 285 288 294 295 294 292 288 284 289 283 285 282 286 291 299 302 301 301 301 303 303 304
294 296 300 305 301 297 290 288 289 293 293 292 286 290 286 289 290 291 290 293 292 293 291 287 282 291 293 295 293 290 292 285 287 278 279 283 285 290 296 298 299 299 300 302 305
294 296 304 307 300 292 284 286 291 295 295 290 288 287 288 288 290 290 291 294 295 294 294 290 287 286 290 288 287 288 286 286 288 289 281 279 285 300 297 299 298 299 301 301 302
291 292 302 301 291 287 286 291 296 293 295 293 291 290 288 289 287 289 290 294 295 293 288 289 285 280 284 289 293 291 287 286 281 279 281 283 281 301 300 301 302 300 302 303 303
288 289 302 299 285 285 289 292 294 293 292 291 291 292 292 287 283 288 291 296 295 292 288 286 281 278 281 285 289 285 288 287 284 281 279 276 280 301 302 301 304 302 303 302 302
291 289 292 292 290 287 286 288 289 296 292 292 291 291 288 286 287 285 289 293 295 295 298 291 283 281 276 277 283 283 286 286 283 277 280 280 281 285 288 290 292 297 302 305 303
292 288 289 285 288 288 286 288 288 287 291 290 287 289 287 282 285 285 290 291 293 296 291 286 279 281 283 286 287 286 285 286 282 282 278 282 282 287 289 290 292 294 296 299 303
290 289 290 288 289 287 287 286 289 288 288 287 286 289 289 284 286 283 286 285 285 290 288 288 282 284 283 287 286 284 285 285 284 285 284 283 282 291 294 294 295 295 296 296 298
292 292 290 288 286 285 285 286 288 288 290 291 289 287 287 289 290 289 289 289 289 286 285 284 282 279 278 283 282 277 282 284 285 287 286 281 286 290 289 292 293 294 295 296 297
Wind_Speed
21 21 21 20 18 17 16 15 14 14 12 11 11 12 11 12 12 2 7 11 7 6 5 2 2 1 3 1 3 4 5 3 5 3 5 8 5 5 3 6 6 6 4 5 18
21 22 21 21 20 19 18 17 15 14 12 11 11 11 10 10 3 6 11 7 10 10 4 4 2 3 2 3 2 5 5 10 7 4 3 6 4 9 6 9 4 1 5 11 18
22 22 22 22 22 19 18 17 16 15 13 11 10 9 9 7 4 8 5 12 11 10 4 5 5 2 1 2 3 5 7 5 5 8 4 5 8 3 5 2 8 3 12 5 6
22 22 22 22 21 21 20 18 16 15 13 10 9 7 6 2 4 2 4 12 10 7 4 4 4 5 3 3 4 2 4 4 5 5 1 5 5 7 5 12 8 9 11 10 16
23 23 23 22 22 21 19 19 17 15 13 9 6 5 3 1 12 2 10 12 7 6 7 6 5 6 3 3 1 5 7 7 9 10 6 4 10 9 8 11 10 4 8 15 15
22 23 23 23 22 20 18 17 16 14 13 9 4 3 2 4 5 5 9 7 6 5 6 7 8 7 4 3 4 3 4 9 7 8 5 6 8 7 8 2 7 8 10 7 9
23 23 23 23 23 22 20 18 17 15 12 7 7 4 2 17 4 6 8 7 5 7 5 6 6 4 5 5 2 3 6 8 3 3 5 7 6 6 10 2 4 8 10 10 10
22 23 24 24 23 23 22 20 19 15 9 4 8 1 9 4 2 5 5 3 5 6 3 5 7 4 4 3 7 4 4 3 5 4 8 6 8 9 11 4 9 9 9 9 11
23 23 24 25 24 23 23 23 17 4 6 9 4 2 11 5 4 8 8 8 4 3 4 2 6 4 4 4 6 7 4 5 9 4 4 4 7 7 5 8 10 8 9 9 10
24 25 25 26 26 25 22 16 4 9 4 4 4 2 6 3 4 6 7 8 3 1 2 5 4 3 4 5 5 4 4 4 8 5 4 8 8 10 8 3 10 8 8 10 10
27 27 27 28 28 26 9 2 3 2 2 6 7 8 15 6 4 3 7 8 4 3 5 0 3 6 9 8 6 4 4 8 14 12 0 9 7 13 9 5 8 10 9 7 11
28 29 30 30 27 25 1 2 2 3 9 13 19 17 15 5 4 7 5 7 7 7 4 4 5 10 7 5 5 5 4 12 12 15 6 10 9 10 8 6 5 7 10 9 7
28 29 30 30 31 2 3 5 6 0 3 13 7 7 7 14 13 15 7 5 6 6 6 8 9 3 4 4 4 7 5 10 11 18 4 5 4 5 6 3 5 8 5 10 11
28 27 29 29 3 5 5 5 6 2 4 9 4 6 4 6 7 15 12 7 1 10 7 5 6 6 4 6 6 7 8 12 12 5 7 3 11 5 5 7 4 12 13 13 14
31 30 26 13 5 3 6 10 9 5 4 3 4 2 2 5 4 2 4 5 8 7 8 8 3 4 4 7 4 9 8 8 7 6 1 3 1 9 2 3 8 10 11 12 14
33 30 24 2 1 8 10 10 4 6 6 8 5 9 2 3 8 3 4 7 1 5 3 7 3 2 3 2 3 4 2 4 5 3 4 6 7 4 2 3 4 5 11 14 15
35 32 12 2 4 6 6 5 6 3 8 10 9 10 4 8 10 9 7 12 5 3 2 2 2 4 6 4 5 7 6 3 5 3 7 5 2 2 6 7 4 8 12 13 15
35 25 3 5 6 6 4 7 2 3 4 5 6 8 6 10 7 12 5 5 8 7 5 2 0 8 8 4 2 4 3 5 4 2 5 6 4 3 7 4 6 9 8 13 16
25 6 5 4 5 2 7 6 2 4 5 7 5 6 7 6 6 5 6 3 4 6 5 2 4 4 10 9 3 6 5 3 1 4 2 4 2 4 4 8 8 10 12 13 13
4 5 6 8 4 6 6 2 2 4 5 4 5 5 5 7 5 6 7 4 2 6 4 0 3 2 3 3 7 4 1 2 3 3 5 5 4 1 5 6 8 9 8 8 7
4 6 5 13 4 7 4 3 1 4 5 4 3 3 2 3 2 1 4 5 2 2 5 2 2 5 4 5 3 5 3 4 3 4 7 1 4 1 4 4 2 6 5 4 2
4 4 5 7 7 2 1 4 5 1 3 3 3 4 2 4 2 2 3 3 5 4 3 1 5 3 4 7 1 4 4 4 4 4 3 2 6 4 3 4 1 5 7 5 5
3 4 6 6 4 4 6 5 3 5 4 2 2 3 1 3 4 2 1 7 6 5 3 4 1 2 2 2 3 4 1 2 2 3 4 4 5 2 5 8 7 5 10 7 6
3 5 6 6 2 3 5 5 5 5 3 4 3 6 5 5 2 4 3 6 5 6 10 5 2 4 6 3 0 2 3 4 3 2 3 4 6 9 10 10 11 10 11 11 6
3 2 2 5 4 5 2 4 3 3 4 7 4 3 0 3 6 3 5 5 5 6 4 4 3 2 4 5 4 5 5 4 4 7 6 5 5 3 7 8 8 9 12 8 7
2 3 4 4 4 4 4 4 4 2 4 2 1 4 4 3 2 1 4 1 1 5 3 4 2 1 3 3 1 3 9 8 7 6 4 4 4 2 6 7 7 10 11 14 14
2 1 4 3 4 2 2 5 4 5 2 3 1 2 2 3 3 6 7 5 4 3 1 2 4 3 4 3 5 4 3 1 3 1 2 4 3 5 5 10 9 7 8 10 14
Wind_Direction
354 352 349 348 346 342 338 336 332 325 318 315 312 307 306 311 308 152 245 219 192 141 127 58 110 53 87 191 165 133 70 215 238 219 241 302 19 298 294 309 240 146 217 197 139
353 350 348 345 345 342 339 337 332 326 320 317 311 307 311 323 290 243 243 208 208 145 124 153 38 73 55 216 207 128 150 219 206 209 253 288 320 296 335 340 349 357 41 149 145
352 349 347 344 342 340 337 333 331 328 322 316 311 307 313 326 323 248 167 198 196 178 123 139 107 94 92 24 212 186 213 208 254 242 223 267 295 252 293 324 281 251 138 152 172
349 347 344 342 339 337 334 331 327 323 318 307 303 304 315 294 291 269 357 159 161 150 98 119 99 120 145 193 233 254 244 210 266 248 166 245 294 296 261 254 254 275 148 152 148
345 343 342 339 336 333 329 326 321 315 311 303 293 293 325 342 250 269 113 127 120 123 154 154 140 142 171 212 303 188 252 267 252 283 243 258 255 232 259 258 256 181 182 172 174
341 338 336 334 332 328 324 317 310 305 304 291 250 162 177 260 240 167 130 135 158 142 160 148 181 190 171 218 161 229 246 275 274 263 237 216 256 156 264 238 227 173 213 215 210
338 335 333 330 328 324 321 313 306 303 293 284 179 198 222 239 108 139 153 176 179 174 170 207 168 131 144 325 221 266 315 326 238 270 268 167 296 219 245 308 205 220 229 227 199
336 333 331 327 325 322 319 314 305 294 270 170 161 209 245 245 15 159 177 275 202 226 242 166 138 145 158 225 7 3 52 353 289 331 270 151 270 274 282 309 280 228 227 242 254
335 332 328 326 324 322 319 315 306 255 169 144 133 171 265 301 202 213 163 210 165 196 253 277 123 180 65 72 11 3 255 297 315 230 260 152 292 276 305 292 278 254 244 242 243
335 332 329 326 324 323 324 315 94 112 136 202 253 344 281 275 267 167 191 198 199 167 179 163 60 99 51 82 233 235 300 280 270 291 348 311 278 286 283 308 282 285 246 250 235
334 331 329 325 326 327 333 92 14 7 210 228 213 231 279 242 314 267 158 131 193 107 175 226 119 213 224 204 191 214 233 269 278 272 344 270 272 282 293 311 307 306 307 266 243
332 330 327 325 325 327 153 47 202 272 298 233 241 236 234 71 308 269 130 157 147 200 127 28 232 227 224 202 195 207 247 270 291 267 142 276 263 267 278 255 242 287 307 303 291
331 327 325 324 322 325 281 246 352 265 273 290 221 228 227 188 220 250 156 153 167 166 174 175 234 145 178 255 230 239 206 259 230 289 272 248 273 249 280 256 317 306 325 356 336
329 326 325 329 346 326 284 310 328 151 31 282 289 278 119 121 229 215 182 138 183 191 175 202 267 236 267 250 179 263 222 247 266 273 263 126 272 271 250 294 344 18 23 356 351
328 329 329 325 298 327 302 331 325 61 340 300 351 71 109 167 284 356 140 84 201 189 122 234 220 205 213 225 192 228 265 246 243 229 207 276 39 275 218 293 32 9 10 0 356
327 330 336 88 320 247 301 313 49 45 256 343 5 342 314 299 339 54 120 40 171 143 57 191 209 173 238 62 110 280 281 12 44 114 246 215 183 251 297 318 57 8 12 3 4
330 330 331 234 274 314 313 36 42 141 324 348 334 335 34 351 1 353 64 46 40 57 67 33 59 74 34 39 13 42 58 328 314 327 246 324 74 328 69 34 33 39 23 12 0
327 324 259 233 280 329 32 49 102 12 357 352 324 323 58 358 359 5 72 46 13 25 60 99 30 13 332 48 304 13 88 116 268 269 276 324 256 49 74 70 35 44 39 38 22
325 331 318 281 301 79 57 51 183 329 307 336 325 33 356 360 6 29 47 61 29 18 95 14 94 331 68 64 44 327 56 149 175 359 16 262 107 101 71 33 23 12 34 26 19
337 338 288 320 351 59 73 233 102 360 335 17 32 44 15 350 38 23 28 3 52 29 108 256 354 65 331 36 35 90 278 63 39 356 304 313 334 103 351 19 360 359 4 352 3
28 9 275 340 56 48 90 298 44 331 35 32 357 323 351 346 2 118 157 286 69 46 52 88 101 314 16 29 11 3 35 53 98 178 200 201 270 327 291 297 357 297 281 268 286
5 356 321 353 48 27 28 305 310 304 328 347 108 56 9 345 309 301 239 241 207 144 153 76 145 159 217 330 184 140 153 117 145 231 261 199 268 223 224 258 230 282 283 290 305
8 277 321 47 74 345 315 309 332 353 334 314 346 22 36 319 336 267 44 346 53 78 122 150 33 71 16 18 17 59 38 172 140 78 224 165 256 207 319 317 309 273 287 204 235
25 349 328 33 31 54 351 281 317 349 34 346 51 67 26 341 233 299 358 27 30 76 57 74 87 159 194 192 87 262 316 295 153 156 243 227 280 334 351 344 326 315 291 290 244
36 293 185 309 338 329 259 276 287 349 13 17 46 65 353 290 342 45 5 9 30 4 49 94 119 191 200 229 230 253 250 263 254 222 190 252 254 305 312 313 312 313 345 321 276
63 28 355 296 310 325 357 333 343 335 350 323 50 344 49 126 124 319 358 9 227 4 43 2 142 58 295 287 271 273 292 279 250 268 257 285 234 40 299 302 345 352 356 4 1
313 14 113 277 325 8 325 314 325 333 342 121 139 334 211 209 223 224 221 237 216 157 187 125 131 89 265 324 315 325 233 311 295 358 247 230 244 341 320 337 328 336 4 355 350